Buffalo, WY

7:00 AM MDT on March 27, 2017 (GMT -0600)
Johnson County

Weather History for KBYG - March, 2014

Change the Weather History Date:

Thursday, March 20, 2014

  Actual Average Record
Temperature  
Mean Temperature 40 °F 35 °F  
Max Temperature 52 °F 47 °F 73 °F (2007)
Min Temperature 28 °F 24 °F -1 °F (2002)
Degree Days  
Heating Degree Days 25 30  
Month to date heating degree days 619 643  
Since 1 July heating degree days 5863 5883  
Cooling Degree Days 0 0  
Month to date cooling degree days 0 0  
Year to date cooling degree days 0 0  
Moisture  
Dew Point 17 °F    
Average Humidity 50    
Maximum Humidity 75    
Minimum Humidity 24    
Precipitation  
Precipitation T in 0.03 in 0.26 in (2017)
Month to date precipitation 0.26 0.49  
Year to date precipitation 0.62 1.26  
Sea Level Pressure  
Sea Level Pressure 29.85 in    
Wind  
Wind Speed 18 mph (NNW)    
Max Wind Speed 48 mph    
Max Gust Speed 59 mph    
Visibility 10 miles    
Events Snow    
T = Trace of Precipitation, MM = Missing Value Source: NWS Daily Summary

Daily Weather History Graph

Daily Weather History Graph

Search for Another Location

Airport or City:

Trip Planner

Search our weather history database for the weather conditions in past years. The results will help you decide how hot, cold, wet, or windy it might be!

Date:

Astronomy

Mar. 20, 2014 Rise Set
Actual Time 7:09 AM MDT 7:19 PM MDT
Civil Twilight 6:40 AM MDT 7:48 PM MDT
Nautical Twilight 6:07 AM MDT 8:22 PM MDT
Astronomical Twilight 5:32 AM MDT 8:57 PM MDT
Moon 11:52 PM MDT (3/20) 9:09 AM MDT (3/20)
Length of Visible Light 13h 07m
Length of Day
12h 09m
Waning Gibbous, 83% of the Moon is Illuminated
Mar 20
Waning Gibbous
Mar 23
Last Quarter
Mar 30
New
Apr 7
First Quarter
Apr 15
Full

Hourly Weather History & Observations

Time (MDT) Temp. Windchill Dew Point Humidity Pressure Visibility Wind Dir Wind Speed Gust Speed Precip Events Conditions
12:53 AM 35.1 °F 29.3 °F 9.0 °F 34% 29.93 in 10.0 mi Variable 6.9 mph - N/A   Clear
1:53 AM 34.0 °F 28.8 °F 8.1 °F 34% 29.92 in 10.0 mi North 5.8 mph - N/A   Clear
2:53 AM 39.0 °F 32.3 °F 8.1 °F 28% 29.90 in 10.0 mi West 10.4 mph - N/A   Clear
3:53 AM 34.0 °F - 12.9 °F 42% 29.90 in 10.0 mi Calm Calm - N/A   Clear
4:53 AM 34.0 °F - 10.9 °F 38% 29.87 in 10.0 mi Calm Calm - N/A   Clear
5:53 AM 35.1 °F 30.1 °F 10.9 °F 37% 29.85 in 10.0 mi ESE 5.8 mph - N/A   Clear
6:53 AM 30.9 °F 25.2 °F 12.9 °F 47% 29.86 in 10.0 mi SSE 5.8 mph - N/A   Clear
7:53 AM 30.9 °F 27.5 °F 12.9 °F 47% 29.86 in 10.0 mi Variable 3.5 mph - N/A   Clear
8:53 AM 36.0 °F 25.6 °F 12.9 °F 39% 29.82 in 10.0 mi SSW 18.4 mph - N/A   Clear
9:53 AM 39.9 °F 30.5 °F 14.0 °F 35% 29.80 in 10.0 mi SSW 19.6 mph - N/A   Clear
10:53 AM 44.1 °F 36.2 °F 16.0 °F 32% 29.77 in 10.0 mi South 18.4 mph - N/A   Clear
11:53 AM 45.0 °F 37.6 °F 16.0 °F 31% 29.74 in 10.0 mi SE 17.3 mph - N/A   Clear
12:53 PM 48.0 °F - 19.9 °F 33% 29.69 in 10.0 mi East 13.8 mph - N/A   Clear
1:53 PM 50.0 °F - 16.0 °F 26% 29.70 in 10.0 mi North 9.2 mph - N/A   Mostly Cloudy
2:53 PM 43.0 °F 33.3 °F 27.0 °F 53% 29.72 in 10.0 mi NNW 25.3 mph 41.4 mph N/A   Mostly Cloudy
3:53 PM 39.9 °F 28.4 °F 26.1 °F 58% 29.77 in 10.0 mi NNW 29.9 mph 42.6 mph N/A   Scattered Clouds
4:53 PM 35.1 °F 21.6 °F 27.0 °F 72% 29.82 in 10.0 mi NNW 31.1 mph 42.6 mph N/A   Scattered Clouds
5:30 PM 32.0 °F 17.2 °F 25.0 °F 75% 29.81 in 10.0 mi NNW 32.2 mph 40.3 mph N/A   Mostly Cloudy
5:53 PM 32.0 °F 17.0 °F 25.0 °F 75% 29.86 in 10.0 mi NNW 33.4 mph 40.3 mph N/A   Overcast
6:34 PM 30.0 °F 14.9 °F 23.0 °F 75% 29.82 in 10.0 mi NNW 29.9 mph 41.4 mph N/A   Mostly Cloudy
6:53 PM 30.0 °F 14.7 °F 21.0 °F 69% 29.89 in 10.0 mi NNW 31.1 mph 42.6 mph N/A   Partly Cloudy
7:21 PM 28.9 °F 13.0 °F 23.0 °F 78% 29.84 in 3.0 mi NNW 32.2 mph 41.4 mph 0.00 in Snow Light Snow
7:49 PM 28.4 °F 12.7 °F 21.2 °F 74% 29.85 in 9.0 mi NNW 29.9 mph 50.6 mph 0.00 in   Mostly Cloudy
7:53 PM 28.9 °F 13.5 °F 21.0 °F 72% 29.93 in 10.0 mi NW 29.9 mph 46.0 mph 0.00 in   Scattered Clouds
8:53 PM 30.9 °F 17.2 °F 17.1 °F 57% 29.94 in 10.0 mi NW 25.3 mph 39.1 mph N/A   Overcast
9:53 PM 32.0 °F 16.0 °F 10.0 °F 40% 29.96 in 10.0 mi NW 39.1 mph 54.1 mph N/A   Overcast
10:53 PM 32.0 °F 20.8 °F 10.9 °F 42% 29.98 in 10.0 mi NNW 17.3 mph 27.6 mph N/A   Overcast
11:53 PM 30.0 °F 18.3 °F 12.0 °F 47% 29.99 in 10.0 mi North 17.3 mph 25.3 mph N/A   Overcast